Regional Weather Roundup
Issued by NWS

Home | Current Version | Previous Version | Text Only | Print | Product List | Glossary On
Versions: 1 2 3 4 5 6 7 8 9 10 11 12 13 14 15 16 17 18 19 20 21 22 23 24 25 26 27 28 29 30 31 32 33 34 35 36 37 38 39 40 41 42 43 44 45 46 47 48 49 50
000
ASUS43 KTOP 281808
RWRKS

WEATHER ROUNDUP FOR KANSAS
NATIONAL WEATHER SERVICE GOODLAND KS
100 PM CDT SAT MAY 28 2016

NOTE:  "FAIR" INDICATES FEW OR NO CLOUDS BELOW 12,000 FEET WITH NO
SIGNIFICANT WEATHER AND/OR OBSTRUCTIONS TO VISIBILITY.

KSZ001>006-013>018-027>032-041>047-281900-
NORTHWEST KANSAS

CITY           SKY/WX    TMP DP  RH WIND       PRES   REMARKS
GOODLAND       SUNNY     69  48  47 VRB3      30.00S
6HR MIN TEMP:  46; 6HR MAX TEMP:  69;

HAYS           MOSUNNY   70  52  52 NW6       29.95S
HILL CITY      SUNNY     73  51  46 NW8       29.95S
6HR MIN TEMP:  51; 6HR MAX TEMP:  73;

RUSSELL        MOSUNNY   70  56  61 W8        29.93R
6HR MIN TEMP:  53; 6HR MAX TEMP:  70;

$$

KSZ061>065-074>080-084>089-281900-
SOUTHWEST KANSAS

CITY           SKY/WX    TMP DP  RH WIND       PRES   REMARKS
DODGE CITY     SUNNY     75  53  46 NW8       29.99R
6HR MIN TEMP:  49; 6HR MAX TEMP:  75;

ELKHART          N/A     73  47  39 W3          N/A
GARDEN CITY    SUNNY     73  46  38 N13G21    29.99S
6HR MIN TEMP:  47; 6HR MAX TEMP:  73;

GREAT BEND     MOSUNNY   72  55  56 W9G20     29.94S
LIBERAL        SUNNY     73  46  38 NW7       30.02S
PRATT          SUNNY     72  53  50 W10       29.95F
6HR MIN TEMP:  53; 6HR MAX TEMP:  72;

$$

KSZ066>073-081>083-090>101-281900-
SOUTHEAST KANSAS

CITY           SKY/WX    TMP DP  RH WIND       PRES   REMARKS
CHANUTE        PTSUNNY   76  63  64 SW12      29.92S
6HR MIN TEMP:  64; 6HR MAX TEMP:  76;

COFFEYVILLE    SUNNY     77  60  55 SW12      29.93S
6HR MIN TEMP:  66; 6HR MAX TEMP:  78;

HUTCHINSON     SUNNY     75  57  53 W12       29.93R
6HR MIN TEMP:  58; 6HR MAX TEMP:  75;

MEDICINE LODGE   N/A     79  51  37 NW12G20   29.93F
NEWTON         MOSUNNY   72  55  56 W12G18    29.95S
PARSONS        MOSUNNY   77  62  59 W8        29.94R
6HR MIN TEMP:  65; 6HR MAX TEMP:  77;

WICHITA INTL   MOSUNNY   76  58  53 W12       29.93R
6HR MIN TEMP:  57; 6HR MAX TEMP:  76;

WICHITA JABRA  SUNNY     75  60  59 W9        29.93R
6HR MIN TEMP:  58; 6HR MAX TEMP:  75;

WICHITA MCCONL SUNNY     75  59  57 W9        29.93R
WINFIELD       MOSUNNY   77  62  59 W8        29.94S
6HR MIN TEMP:  58; 6HR MAX TEMP:  77;

$$

KSZ007>012-019>026-033>040-048>060-102>105-281900-
NORTHEAST KANSAS

CITY           SKY/WX    TMP DP  RH WIND       PRES   REMARKS
CONCORDIA      MOSUNNY   71  57  61 W13G22    29.90R
6HR MIN TEMP:  57; 6HR MAX TEMP:  72;

EMPORIA        MOSUNNY   73  58  59 W9        29.92R
6HR MIN TEMP:  59; 6HR MAX TEMP:  73;

LAWRENCE       PTSUNNY   73  60  63 W14       29.88R
6HR MIN TEMP:  60; 6HR MAX TEMP:  73;

MANHATTAN      MOSUNNY   73  57  57 W10G20    29.89R
6HR MIN TEMP:  60; 6HR MAX TEMP:  73;

MARYSVILLE     PTSUNNY   70  59  68 W15G21    29.87S
OLATHE IND     MOSUNNY   73  60  63 SW12      29.89S
6HR MIN TEMP:  61; 6HR MAX TEMP:  73;

OLATHE EXE     PTSUNNY   72  60  66 W13       29.89R
6HR MIN TEMP:  59; 6HR MAX TEMP:  72;

SALINA         MOSUNNY   74  57  55 W10       29.91S
6HR MIN TEMP:  59; 6HR MAX TEMP:  75;

TOPEKA BILLARD MOSUNNY   72  59  63 W13G18    29.88R
6HR MIN TEMP:  61; 6HR MAX TEMP:  72;

TOPEKA FORBES  PTSUNNY   73  59  61 W10       29.89R
6HR MIN TEMP:  61; 6HR MAX TEMP:  73;

$$




USA.gov is the U.S. government's official web portal to all federal, state and local government web resources and services.